Le nostre stazioni meteo in Italia

Pubblicità
Il mio iltempo24.it
Cozzo Spadaro, Italia (16480): Temperatura & dewpoint: 22.03.2017 11:00:00 - 28.03.2017 11:00:00 (CEST)Cozzo Spadaro, Italia (16480): velocità del vento: 22.03.2017 11:00:00 - 28.03.2017 11:00:00 (CEST)Cozzo Spadaro, Italia (16480): direzione del vento: 22.03.2017 11:00:00 - 28.03.2017 11:00:00 (CEST)Cozzo Spadaro, Italia (16480): reduced air pressure: 22.03.2017 11:00:00 - 28.03.2017 11:00:00 (CEST)Cozzo Spadaro, Italia (16480): visibility: 22.03.2017 11:00:00 - 28.03.2017 11:00:00 (CEST)Cozzo Spadaro, Italia (16480): ore di luce: 22.03.2017 11:00:00 - 28.03.2017 11:00:00 (CEST)
Data & Tempo tt [°C] td [°C] ff [km/h] ff [kn] dd ppp [hPa] vv [km] sd [min]
28.03.2017 11:00:00 13,2 10,4 18 10 NE 1017,2 20 6
28.03.2017 10:00:00 13,0 10,4 21 11 NE 1017,1 18 24
28.03.2017 09:00:00 12,4 10,3 22 12 NE 1016,4 15 42
28.03.2017 08:00:00 12,2 10,3 21 11 NE 1016,2 15 0
28.03.2017 07:00:00 - - - - - - - -
28.03.2017 06:00:00 - - - - - - - -
28.03.2017 05:00:00 - - - - - - - -
28.03.2017 04:00:00 - - - - - - - -
28.03.2017 03:00:00 - - - - - - - -
28.03.2017 02:00:00 - - - - - - - -
28.03.2017 01:00:00 - - - - - - - -
28.03.2017 00:00:00 - - - - - - - -
27.03.2017 23:00:00 - - - - - - - -
27.03.2017 22:00:00 - - - - - - - -
27.03.2017 21:00:00 - - - - - - - -
27.03.2017 20:00:00 15,8 15,2 0 0 N 1016,7 15 -
27.03.2017 19:00:00 16,2 15,6 4 2 SE 1016,1 15 6
27.03.2017 18:00:00 17,4 16,2 4 2 ESE 1016,0 15 60
27.03.2017 17:00:00 17,6 15,8 5 3 SE 1016,0 18 60
27.03.2017 16:00:00 17,8 15,6 8 4 SE 1016,1 18 60
27.03.2017 15:00:00 17,8 15,6 9 5 SSE 1016,2 20 60
27.03.2017 14:00:00 17,6 15,2 11 6 SE 1016,5 20 60
27.03.2017 13:00:00 17,4 14,5 11 6 ENE 1016,5 20 60
27.03.2017 12:00:00 17,0 13,1 16 9 ENE 1016,5 25 60
27.03.2017 11:00:00 16,2 13,3 21 11 NE 1016,2 25 60
27.03.2017 10:00:00 15,0 12,3 24 13 NE 1016,1 25 60
27.03.2017 09:00:00 14,4 12,1 24 13 NE 1015,6 25 60
27.03.2017 08:00:00 13,6 11,7 22 12 NE 1015,2 20 0
27.03.2017 07:00:00 - - - - - - - -
27.03.2017 06:00:00 - - - - - - - -
27.03.2017 05:00:00 - - - - - - - -
27.03.2017 04:00:00 - - - - - - - -
27.03.2017 03:00:00 - - - - - - - -
27.03.2017 02:00:00 - - - - - - - -
27.03.2017 01:00:00 - - - - - - - -
27.03.2017 00:00:00 - - - - - - - -
26.03.2017 23:00:00 - - - - - - - -
26.03.2017 22:00:00 - - - - - - - -
26.03.2017 21:00:00 - - - - - - - -
26.03.2017 20:00:00 - - - - - - - -
26.03.2017 19:00:00 - - - - - - - -
26.03.2017 18:00:00 - - - - - - - -
26.03.2017 17:00:00 - - - - - - - -
26.03.2017 16:00:00 - - - - - - - -
26.03.2017 15:00:00 - - - - - - - -
26.03.2017 14:00:00 - - - - - - - -
26.03.2017 13:00:00 - - - - - - - -
26.03.2017 12:00:00 - - - - - - - -
26.03.2017 11:00:00 - - - - - - - -
26.03.2017 10:00:00 - - - - - - - -
26.03.2017 09:00:00 - - - - - - - -
26.03.2017 08:00:00 - - - - - - - -
26.03.2017 07:00:00 - - - - - - - -
26.03.2017 06:00:00 - - - - - - - -
26.03.2017 05:00:00 - - - - - - - -
26.03.2017 04:00:00 - - - - - - - -
26.03.2017 03:00:00 - - - - - - - -
26.03.2017 02:00:00 - - - - - - - -
26.03.2017 01:00:00 - - - - - - - -
26.03.2017 00:00:00 - - - - - - - -
25.03.2017 23:00:00 - - - - - - - -
25.03.2017 22:00:00 - - - - - - - -
25.03.2017 21:00:00 - - - - - - - -
25.03.2017 20:00:00 15,2 14,2 4 2 SSO 1019,2 10 -
25.03.2017 19:00:00 16,0 15,0 8 4 SSO 1019,3 10 0
25.03.2017 18:00:00 16,2 14,5 8 4 SSO 1020,0 12 60
25.03.2017 17:00:00 17,0 14,7 5 3 SO 1020,1 12 60
25.03.2017 16:00:00 17,0 14,3 8 4 SSO 1020,9 12 48
25.03.2017 15:00:00 17,0 14,1 9 5 SSO 1021,2 12 30
25.03.2017 14:00:00 16,8 14,1 9 5 SSO 1022,0 12 18
25.03.2017 13:00:00 16,6 14,1 4 2 S 1022,1 10 36
25.03.2017 12:00:00 15,8 13,3 4 2 SSE 1022,1 10 6
25.03.2017 11:00:00 15,4 13,4 5 3 NNE 1022,1 10 12
25.03.2017 10:00:00 15,0 13,0 4 2 NE 1021,1 10 36
25.03.2017 09:00:00 14,8 13,2 5 3 NE 1021,2 10 36
25.03.2017 08:00:00 12,0 10,4 4 2 NNO 1020,8 10 0
25.03.2017 07:00:00 - - - - - - - -
25.03.2017 06:00:00 - - - - - - - -
25.03.2017 05:00:00 - - - - - - - -
25.03.2017 04:00:00 - - - - - - - -
25.03.2017 03:00:00 - - - - - - - -
25.03.2017 02:00:00 - - - - - - - -
25.03.2017 01:00:00 - - - - - - - -
25.03.2017 00:00:00 - - - - - - - -
24.03.2017 23:00:00 - - - - - - - -
24.03.2017 22:00:00 - - - - - - - -
24.03.2017 21:00:00 - - - - - - - -
24.03.2017 20:00:00 15,2 11,6 4 2 OSO 1019,8 18 -
24.03.2017 19:00:00 16,0 12,2 5 3 OSO 1019,7 25 30
24.03.2017 18:00:00 16,4 11,1 5 3 SSO 1019,9 25 60
24.03.2017 17:00:00 17,4 12,9 8 4 SSO 1019,9 25 60
24.03.2017 16:00:00 17,6 13,7 8 4 S 1019,9 20 60
24.03.2017 15:00:00 17,8 13,5 8 4 SE 1019,9 20 60
24.03.2017 14:00:00 17,6 13,5 5 3 E 1020,0 20 54
24.03.2017 13:00:00 17,4 13,3 5 3 SE 1020,1 20 48
24.03.2017 12:00:00 17,4 12,9 5 3 E 1020,1 20 24
24.03.2017 11:00:00 16,0 10,1 4 2 E 1020,1 20 6
24.03.2017 10:00:00 16,2 10,3 4 2 NNE 1019,6 20 18
24.03.2017 09:00:00 14,6 9,8 4 2 NNO 1019,3 20 18
24.03.2017 08:00:00 12,6 8,1 4 2 O 1019,0 20 0
24.03.2017 07:00:00 - - - - - - - -
24.03.2017 06:00:00 - - - - - - - -
24.03.2017 05:00:00 - - - - - - - -
24.03.2017 04:00:00 - - - - - - - -
24.03.2017 03:00:00 - - - - - - - -
24.03.2017 02:00:00 - - - - - - - -
24.03.2017 01:00:00 - - - - - - - -
24.03.2017 00:00:00 - - - - - - - -
23.03.2017 23:00:00 - - - - - - - -
23.03.2017 22:00:00 - - - - - - - -
23.03.2017 21:00:00 - - - - - - - -
23.03.2017 20:00:00 14,6 10,4 9 5 O 1017,6 20 -
23.03.2017 19:00:00 15,4 12,0 13 7 O 1017,1 20 54
23.03.2017 18:00:00 16,4 12,8 15 8 O 1017,1 25 60
23.03.2017 17:00:00 17,2 12,9 15 8 O 1017,1 25 60
23.03.2017 16:00:00 17,6 12,5 13 7 O 1017,0 25 60
23.03.2017 15:00:00 17,6 11,2 15 8 OSO 1017,5 25 60
23.03.2017 14:00:00 17,4 12,1 15 8 O 1018,0 25 60
23.03.2017 13:00:00 17,0 11,7 16 9 O 1018,0 25 60
23.03.2017 12:00:00 17,2 12,5 15 8 OSO 1017,4 25 60
23.03.2017 11:00:00 16,6 11,1 15 8 O 1017,1 25 60
23.03.2017 10:00:00 15,6 10,8 15 8 O 1017,1 10 60
23.03.2017 09:00:00 14,8 10,4 11 6 O 1016,6 18 54
23.03.2017 08:00:00 12,8 8,5 8 4 O 1016,1 15 0
23.03.2017 07:00:00 - - - - - - - -
23.03.2017 06:00:00 - - - - - - - -
23.03.2017 05:00:00 - - - - - - - -
23.03.2017 04:00:00 - - - - - - - -
23.03.2017 03:00:00 - - - - - - - -
23.03.2017 02:00:00 - - - - - - - -
23.03.2017 01:00:00 - - - - - - - -
23.03.2017 00:00:00 - - - - - - - -
22.03.2017 23:00:00 - - - - - - - -
22.03.2017 22:00:00 - - - - - - - -
22.03.2017 21:00:00 - - - - - - - -
22.03.2017 20:00:00 14,4 10,4 9 5 E 1014,2 16 -
22.03.2017 19:00:00 15,2 11,4 4 2 E 1013,9 18 60
22.03.2017 18:00:00 16,2 12,4 11 6 ENE 1013,3 20 60
22.03.2017 17:00:00 17,0 12,7 13 7 ENE 1013,1 20 60
22.03.2017 16:00:00 17,2 12,9 16 9 NE 1013,0 20 60
22.03.2017 15:00:00 17,4 12,7 18 10 NE 1013,1 20 60
22.03.2017 14:00:00 17,2 12,7 16 9 NE 1013,1 18 60
22.03.2017 13:00:00 17,2 12,7 16 9 ENE 1013,2 18 60
22.03.2017 12:00:00 16,8 12,5 18 10 NE 1013,0 16 60
22.03.2017 11:00:00 - - - - - - - -

tt = Temperatura
td = dewpoint
ff = velocità del vento
dd = direzione del vento
ppp = reduced air pressure
vv = visibility
sd = ore di luce

Stazioni seguenti

WeatherPro
AMSI
MeteoEarth